Overview Statistics Trail Chart Weather Telemetry Raw packets
 

This is the latest recevied weather packets stored in our database for station/object K5OLV. If no packets are shown the sender has not sent any weather packets the latest 10 day(s).

<< 101 102 103 104 105 106 107 >>
Time Temp. Humidity Pressure Rain* Wind** Luminosity Snow
1787854121 30° C 67% 1014.2 hPa 0 mm - 781 W/m² -
1787853816 28.33° C 69% 1014.2 hPa 0 mm - 724 W/m² -
1787853514 28.89° C 71% 1014.3 hPa 0 mm - 755 W/m² -
1787853210 28.89° C 69% 1014.1 hPa 0 mm - 756 W/m² -
1787852909 28.89° C 71% 1014.2 hPa 0 mm - 741 W/m² -
1787852604 29.44° C 67% 1014.2 hPa 0 mm - 736 W/m² -
1787852303 28.33° C 66% 1014.3 hPa 0 mm - 714 W/m² -
1787852002 27.78° C 73% 1014.3 hPa 0 mm - 678 W/m² -
1787851702 28.33° C 69% 1014.4 hPa 0 mm - 695 W/m² -
1787851396 28.33° C 70% 1014.4 hPa 0 mm - 702 W/m² -
1787851091 28.33° C 70% 1014.6 hPa 0 mm - 710 W/m² -
1787850787 27.22° C 71% 1014.5 hPa 0 mm - 684 W/m² -
1787850482 27.22° C 72% 1014.6 hPa 0 mm - 661 W/m² -
1787850177 26.67° C 74% 1014.7 hPa 0 mm - 685 W/m² -
1787849872 27.22° C 76% 1014.8 hPa 0 mm - 686 W/m² -
1787849567 26.67° C 77% 1014.7 hPa 0 mm - 699 W/m² -
1787849266 27.22° C 76% 1014.9 hPa 0 mm - 707 W/m² -
1787848965 27.22° C 75% 1015 hPa 0 mm - 721 W/m² -
1787848660 26.67° C 78% 1014.8 hPa 0 mm - 725 W/m² -
1787848355 26.67° C 75% 1014.8 hPa 0 mm - 718 W/m² -
1787848049 26.11° C 79% 1014.8 hPa 0 mm - 702 W/m² -
1787847744 26.11° C 78% 1014.9 hPa 0 mm - 714 W/m² -
1787847438 26.11° C 77% 1014.9 hPa 0 mm - 709 W/m² -
1787847134 26.67° C 78% 1014.8 hPa 0 mm - 640 W/m² -
1787846830 26.11° C 77% 1014.7 hPa 0 mm - 747 W/m² -

* Rain latest hour (hover to see other rain measurements)
** Current wind speed in m/s (hover to see current wind gust speed)